| time (UTC) | temp C | wind direction | speed KPH | gust KPH | rain 1hr cm | rain 24hr cm | rain mn cm | humidity % | barometer mb |
| 20260508023304 | 8 | 278 | 1.6 | 3.2 | 0.00 | 0.00 | 0.00 | 63 | 1016.0 |
| 20260508022800 | 8 | 294 | 0.0 | 1.6 | 0.00 | 0.00 | 0.00 | 61 | 1016.0 |
| 20260508022257 | 8 | 292 | 1.6 | 3.2 | 0.00 | 0.00 | 0.00 | 59 | 1015.9 |
| 20260508021754 | 9 | 303 | 1.6 | 3.2 | 0.00 | 0.00 | 0.00 | 57 | 1015.9 |
| 20260508021249 | 9 | 261 | 3.2 | 4.8 | 0.00 | 0.00 | 0.00 | 57 | 1015.9 |
| 20260508020746 | 10 | 307 | 1.6 | 1.6 | 0.00 | 0.00 | 0.00 | 56 | 1015.8 |
| 20260508020244 | 10 | 290 | 3.2 | 4.8 | 0.00 | 0.00 | 0.00 | 53 | 1015.8 |
| 20260508015741 | -17 | 0.0 | 0.0 | 0.00 | 0.00 | 0.00 | 1015.6 | ||
| 20260508015238 | -17 | 0.0 | 0.0 | 0.00 | 0.00 | 0.00 | 1015.5 | ||
| 20260508014735 | 10 | 277 | 3.2 | 3.2 | 0.00 | 0.00 | 0.00 | 52 | 1015.4 |
| 20260508014232 | 10 | 277 | 3.2 | 3.2 | 0.00 | 0.00 | 0.00 | 52 | 1015.6 |
| 20260508013727 | 10 | 250 | 3.2 | 4.8 | 0.00 | 0.00 | 0.00 | 53 | 1015.3 |
| 20260508013224 | 10 | 291 | 3.2 | 3.2 | 0.00 | 0.00 | 0.00 | 52 | 1015.3 |
| 20260508012722 | 10 | 258 | 1.6 | 1.6 | 0.00 | 0.00 | 0.00 | 51 | 1015.3 |
| 20260508012218 | 10 | 271 | 1.6 | 3.2 | 0.00 | 0.00 | 0.00 | 53 | 1015.1 |
| 20260508011717 | 11 | 292 | 6.4 | 6.4 | 0.00 | 0.00 | 0.00 | 47 | 1015.1 |
| 20260508011214 | 11 | 299 | 4.8 | 6.4 | 0.00 | 0.00 | 0.00 | 50 | 1015.1 |
| 20260508010710 | 11 | 273 | 1.6 | 9.7 | 0.00 | 0.00 | 0.00 | 49 | 1015.0 |
| 20260508010208 | 11 | 280 | 3.2 | 4.8 | 0.00 | 0.00 | 0.00 | 49 | 1014.8 |
| 20260508005700 | 11 | 251 | 8.0 | 9.7 | 0.00 | 0.00 | 0.00 | 47 | 1014.9 |
| 20260508005157 | 11 | 284 | 6.4 | 6.4 | 0.00 | 0.00 | 0.00 | 49 | 1014.8 |
| 20260508004652 | 11 | 273 | 1.6 | 4.8 | 0.00 | 0.00 | 0.00 | 45 | 1014.8 |
| 20260508004149 | 11 | 260 | 3.2 | 4.8 | 0.00 | 0.00 | 0.00 | 49 | 1014.5 |
| 20260508003645 | 12 | 265 | 3.2 | 3.2 | 0.00 | 0.00 | 0.00 | 45 | 1014.5 |
| 20260508003142 | 11 | 268 | 3.2 | 4.8 | 0.00 | 0.00 | 0.00 | 45 | 1014.6 |
| 20260508002638 | 12 | 261 | 3.2 | 4.8 | 0.00 | 0.00 | 0.00 | 45 | 1014.3 |
| 20260508002137 | 12 | 273 | 6.4 | 9.7 | 0.00 | 0.00 | 0.00 | 45 | 1014.1 |
| 20260508001631 | 12 | 267 | 3.2 | 4.8 | 0.00 | 0.00 | 0.00 | 43 | 1014.1 |
| 20260508001128 | 12 | 249 | 4.8 | 4.8 | 0.00 | 0.00 | 0.00 | 45 | 1013.9 |
| 20260508000623 | 12 | 287 | 6.4 | 9.7 | 0.00 | 0.00 | 0.00 | 44 | 1014.0 |
| 20260508000121 | 12 | 294 | 8.0 | 9.7 | 0.00 | 0.00 | 0.00 | 43 | 1014.0 |
| 20260507235618 | 13 | 272 | 4.8 | 12.9 | 0.00 | 0.00 | 0.00 | 42 | 1013.8 |
| 20260507235116 | 13 | 282 | 4.8 | 4.8 | 0.00 | 0.00 | 0.00 | 43 | 1013.8 |
| 20260507234612 | 13 | 231 | 6.4 | 16.1 | 0.00 | 0.00 | 0.00 | 42 | 1013.8 |
| 20260507234108 | 13 | 222 | 1.6 | 11.3 | 0.00 | 0.00 | 0.00 | 44 | 1013.9 |
| 20260507233605 | 14 | 316 | 12.9 | 16.1 | 0.00 | 0.00 | 0.00 | 41 | 1013.6 |
| 20260507233104 | 15 | 243 | 1.6 | 3.2 | 0.00 | 0.00 | 0.00 | 46 | 1013.3 |
| 20260507232600 | 14 | 285 | 1.6 | 1.6 | 0.00 | 0.00 | 0.00 | 42 | 1013.4 |
| 20260507232057 | 15 | 328 | 6.4 | 6.4 | 0.00 | 0.00 | 0.00 | 43 | 1013.4 |
| 20260507231553 | 15 | 250 | 3.2 | 4.8 | 0.00 | 0.00 | 0.00 | 42 | 1013.3 |
| 20260507231051 | 15 | 281 | 1.6 | 4.8 | 0.00 | 0.00 | 0.00 | 43 | 1013.1 |
| 20260507230547 | 15 | 258 | 3.2 | 3.2 | 0.00 | 0.00 | 0.00 | 43 | 1013.3 |
| 20260507230044 | 15 | 241 | 4.8 | 12.9 | 0.00 | 0.00 | 0.00 | 43 | 1013.2 |
| 20260507225539 | 15 | 264 | 4.8 | 6.4 | 0.00 | 0.00 | 0.00 | 43 | 1013.2 |
| 20260507225035 | 13 | 261 | 4.8 | 4.8 | 0.00 | 0.00 | 0.00 | 44 | 1013.3 |
| 20260507224532 | 14 | 269 | 4.8 | 9.7 | 0.00 | 0.00 | 0.00 | 41 | 1013.2 |
| 20260507224028 | 15 | 287 | 8.0 | 16.1 | 0.00 | 0.00 | 0.00 | 40 | 1013.2 |
| 20260507223524 | 15 | 269 | 11.3 | 12.9 | 0.00 | 0.00 | 0.00 | 41 | 1013.2 |
| 20260507223021 | 16 | 253 | 6.4 | 11.3 | 0.00 | 0.00 | 0.00 | 43 | 1013.0 |
| 20260507222518 | 15 | 260 | 4.8 | 11.3 | 0.00 | 0.00 | 0.00 | 41 | 1013.0 |
| 20260507222014 | 15 | 256 | 4.8 | 9.7 | 0.00 | 0.00 | 0.00 | 44 | 1013.1 |
| 20260507221511 | 15 | 274 | 4.8 | 6.4 | 0.00 | 0.00 | 0.00 | 46 | 1013.0 |
| 20260507221008 | 15 | 250 | 8.0 | 14.5 | 0.00 | 0.00 | 0.00 | 46 | 1013.0 |
| 20260507220506 | 15 | 263 | 6.4 | 6.4 | 0.00 | 0.00 | 0.00 | 44 | 1012.9 |
| 20260507220003 | 15 | 272 | 3.2 | 6.4 | 0.00 | 0.00 | 0.00 | 45 | 1012.6 |
| 20260507215459 | 15 | 311 | 6.4 | 9.7 | 0.00 | 0.00 | 0.00 | 42 | 1012.8 |
| 20260507214957 | 15 | 356 | 1.6 | 6.4 | 0.00 | 0.00 | 0.00 | 44 | 1012.6 |
| 20260507214454 | 14 | 251 | 1.6 | 3.2 | 0.00 | 0.00 | 0.00 | 50 | 1012.8 |
| 20260507213949 | 14 | 302 | 4.8 | 6.4 | 0.00 | 0.00 | 0.00 | 44 | 1012.7 |
| 20260507213445 | 15 | 228 | 0.0 | 3.2 | 0.00 | 0.00 | 0.00 | 48 | 1012.6 |
| 20260507212943 | 15 | 249 | 1.6 | 3.2 | 0.00 | 0.00 | 0.00 | 46 | 1012.5 |
| 20260507212438 | 15 | 300 | 3.2 | 6.4 | 0.00 | 0.00 | 0.00 | 44 | 1012.4 |
| 20260507211936 | 15 | 256 | 6.4 | 14.5 | 0.00 | 0.00 | 0.00 | 46 | 1012.5 |
| 20260507211427 | 15 | 286 | 3.2 | 9.7 | 0.00 | 0.00 | 0.00 | 46 | 1012.6 |
| 20260507210923 | 16 | 325 | 4.8 | 9.7 | 0.00 | 0.00 | 0.00 | 45 | 1012.4 |
| 20260507210420 | 15 | 309 | 1.6 | 4.8 | 0.00 | 0.00 | 0.00 | 48 | 1012.5 |
| 20260507205917 | 14 | 291 | 8.0 | 11.3 | 0.00 | 0.00 | 0.00 | 45 | 1012.7 |
| 20260507205414 | 14 | 302 | 4.8 | 11.3 | 0.00 | 0.00 | 0.00 | 46 | 1012.6 |
| 20260507204910 | 15 | 280 | 3.2 | 11.3 | 0.00 | 0.00 | 0.00 | 44 | 1012.4 |
| 20260507204407 | 15 | 269 | 3.2 | 3.2 | 0.00 | 0.00 | 0.00 | 51 | 1012.4 |
| 20260507203904 | 15 | 253 | 3.2 | 6.4 | 0.00 | 0.00 | 0.00 | 48 | 1012.4 |
| 20260507203402 | 15 | 264 | 3.2 | 9.7 | 0.00 | 0.00 | 0.00 | 48 | 1012.3 |
| 20260507202858 | 15 | 301 | 4.8 | 4.8 | 0.00 | 0.00 | 0.00 | 47 | 1012.5 |
| 20260507202354 | 15 | 261 | 6.4 | 9.7 | 0.00 | 0.00 | 0.00 | 46 | 1012.5 |
| 20260507201850 | 15 | 259 | 8.0 | 11.3 | 0.00 | 0.00 | 0.00 | 43 | 1012.6 |
| 20260507201345 | 16 | 275 | 11.3 | 16.1 | 0.00 | 0.00 | 0.00 | 47 | 1012.5 |
| 20260507200843 | 16 | 268 | 8.0 | 11.3 | 0.00 | 0.00 | 0.00 | 47 | 1012.7 |
| 20260507200338 | 16 | 283 | 8.0 | 11.3 | 0.00 | 0.00 | 0.00 | 47 | 1012.6 |
| 20260507195834 | 15 | 241 | 9.7 | 14.5 | 0.00 | 0.00 | 0.00 | 48 | 1012.8 |
| 20260507195332 | 15 | 274 | 12.9 | 16.1 | 0.00 | 0.00 | 0.00 | 45 | 1012.9 |
| 20260507194829 | 15 | 290 | 4.8 | 14.5 | 0.00 | 0.00 | 0.00 | 49 | 1012.8 |
| 20260507194325 | 14 | 311 | 4.8 | 6.4 | 0.00 | 0.00 | 0.00 | 45 | 1013.1 |
| 20260507193822 | 15 | 265 | 8.0 | 12.9 | 0.00 | 0.00 | 0.00 | 47 | 1013.3 |
| 20260507193319 | 15 | 246 | 4.8 | 12.9 | 0.00 | 0.00 | 0.00 | 50 | 1012.9 |
| 20260507192814 | 16 | 226 | 8.0 | 11.3 | 0.00 | 0.00 | 0.00 | 52 | 1013.1 |
| 20260507192312 | 16 | 232 | 12.9 | 16.1 | 0.00 | 0.00 | 0.00 | 52 | 1013.3 |
| 20260507191808 | 16 | 173 | 8.0 | 12.9 | 0.00 | 0.00 | 0.00 | 45 | 1013.1 |
| 20260507191304 | 15 | 200 | 1.6 | 6.4 | 0.00 | 0.00 | 0.00 | 52 | 1013.2 |
| 20260507190801 | 14 | 265 | 8.0 | 12.9 | 0.00 | 0.00 | 0.00 | 48 | 1013.3 |
| 20260507190300 | 15 | 274 | 3.2 | 11.3 | 0.00 | 0.00 | 0.00 | 53 | 1013.2 |
| 20260507185758 | 15 | 239 | 6.4 | 12.9 | 0.00 | 0.00 | 0.00 | 51 | 1013.3 |
| 20260507185254 | 16 | 205 | 6.4 | 11.3 | 0.00 | 0.00 | 0.00 | 46 | 1013.2 |
| 20260507184752 | 16 | 252 | 3.2 | 11.3 | 0.00 | 0.00 | 0.00 | 51 | 1013.3 |
| 20260507184250 | 15 | 215 | 9.7 | 14.5 | 0.00 | 0.00 | 0.00 | 52 | 1013.1 |
| 20260507183747 | 14 | 117 | 4.8 | 12.9 | 0.00 | 0.00 | 0.00 | 53 | 1013.3 |
| 20260507183244 | 15 | 212 | 9.7 | 14.5 | 0.00 | 0.00 | 0.00 | 48 | 1013.2 |
| 20260507182742 | 16 | 169 | 6.4 | 11.3 | 0.00 | 0.00 | 0.00 | 46 | 1013.2 |
| 20260507182241 | 15 | 221 | 8.0 | 12.9 | 0.00 | 0.00 | 0.00 | 54 | 1013.4 |
| 20260507181739 | 15 | 308 | 6.4 | 9.7 | 0.00 | 0.00 | 0.00 | 46 | 1013.1 |
| 20260507181235 | 14 | 274 | 6.4 | 9.7 | 0.00 | 0.00 | 0.00 | 52 | 1013.3 |
| 20260507180732 | 14 | 290 | 1.6 | 6.4 | 0.00 | 0.00 | 0.00 | 54 | 1013.5 |
| 20260507180229 | 15 | 226 | 0.0 | 9.7 | 0.00 | 0.00 | 0.00 | 46 | 1013.4 |
| 20260507175724 | 16 | 174 | 16.1 | 20.9 | 0.00 | 0.00 | 0.00 | 49 | 1013.3 |
| 20260507175221 | 15 | 249 | 4.8 | 12.9 | 0.00 | 0.00 | 0.00 | 55 | 1013.6 |
| 20260507174719 | 16 | 252 | 3.2 | 20.9 | 0.00 | 0.00 | 0.00 | 53 | 1013.4 |
| 20260507174217 | 16 | 95 | 1.6 | 9.7 | 0.00 | 0.00 | 0.00 | 57 | 1013.5 |
| 20260507173714 | 16 | 302 | 11.3 | 24.1 | 0.00 | 0.00 | 0.00 | 47 | 1013.5 |
| 20260507173210 | 15 | 169 | 4.8 | 6.4 | 0.00 | 0.00 | 0.00 | 48 | 1013.7 |
| 20260507172707 | 15 | 265 | 3.2 | 11.3 | 0.00 | 0.00 | 0.00 | 46 | 1013.8 |
| 20260507172204 | 16 | 150 | 11.3 | 14.5 | 0.00 | 0.00 | 0.00 | 54 | 1014.0 |
| 20260507171704 | 15 | 265 | 8.0 | 9.7 | 0.00 | 0.00 | 0.00 | 53 | 1014.1 |
| 20260507171202 | 15 | 322 | 3.2 | 6.4 | 0.00 | 0.00 | 0.00 | 43 | 1014.1 |
| 20260507170658 | 15 | 309 | 8.0 | 16.1 | 0.00 | 0.00 | 0.00 | 51 | 1014.0 |
| 20260507170156 | 16 | 204 | 4.8 | 9.7 | 0.00 | 0.00 | 0.00 | 51 | 1014.0 |
| 20260507165651 | 15 | 175 | 3.2 | 6.4 | 0.00 | 0.00 | 0.00 | 54 | 1014.1 |
| 20260507165148 | 15 | 177 | 6.4 | 9.7 | 0.00 | 0.00 | 0.00 | 49 | 1014.3 |
| 20260507164644 | 15 | 247 | 3.2 | 11.3 | 0.00 | 0.00 | 0.00 | 57 | 1014.5 |
| 20260507164141 | 15 | 268 | 4.8 | 11.3 | 0.00 | 0.00 | 0.00 | 51 | 1014.4 |
| 20260507163638 | 15 | 223 | 3.2 | 9.7 | 0.00 | 0.00 | 0.00 | 50 | 1014.5 |
| 20260507163136 | 14 | 275 | 0.0 | 4.8 | 0.00 | 0.00 | 0.00 | 51 | 1014.5 |
| 20260507162632 | 14 | 240 | 3.2 | 11.3 | 0.00 | 0.00 | 0.00 | 55 | 1014.5 |
| 20260507162128 | 14 | 300 | 1.6 | 4.8 | 0.00 | 0.00 | 0.00 | 51 | 1014.6 |
| 20260507161624 | 13 | 279 | 1.6 | 4.8 | 0.00 | 0.00 | 0.00 | 53 | 1014.6 |
| 20260507161121 | 14 | 291 | 6.4 | 14.5 | 0.00 | 0.00 | 0.00 | 48 | 1014.6 |
| 20260507160617 | 13 | 236 | 1.6 | 4.8 | 0.00 | 0.00 | 0.00 | 54 | 1014.6 |
| 20260507160114 | 13 | 295 | 0.0 | 1.6 | 0.00 | 0.00 | 0.00 | 51 | 1014.7 |
| 20260507155609 | 13 | 264 | 3.2 | 4.8 | 0.00 | 0.00 | 0.00 | 55 | 1014.8 |
| 20260507155106 | 13 | 323 | 8.0 | 11.3 | 0.00 | 0.00 | 0.00 | 51 | 1014.8 |
| 20260507154603 | 12 | 252 | 1.6 | 6.4 | 0.00 | 0.00 | 0.00 | 58 | 1014.6 |
| 20260507154100 | 12 | 303 | 6.4 | 9.7 | 0.00 | 0.00 | 0.00 | 57 | 1014.8 |
| 20260507153557 | 13 | 277 | 8.0 | 11.3 | 0.00 | 0.00 | 0.00 | 50 | 1014.9 |
| 20260507153053 | 13 | 1 | 3.2 | 4.8 | 0.00 | 0.00 | 0.00 | 54 | 1015.1 |
| 20260507152549 | 13 | 319 | 4.8 | 9.7 | 0.00 | 0.00 | 0.00 | 51 | 1014.9 |
| 20260507152046 | 13 | 308 | 3.2 | 6.4 | 0.00 | 0.00 | 0.00 | 52 | 1014.8 |
| 20260507151542 | 13 | 234 | 6.4 | 9.7 | 0.00 | 0.00 | 0.00 | 53 | 1014.9 |
| 20260507151039 | 13 | 243 | 9.7 | 11.3 | 0.00 | 0.00 | 0.00 | 59 | 1015.2 |
| 20260507150531 | 13 | 270 | 4.8 | 6.4 | 0.00 | 0.00 | 0.00 | 58 | 1015.2 |
| 20260507150028 | 12 | 170 | 0.0 | 3.2 | 0.00 | 0.00 | 0.00 | 58 | 1015.1 |
| 20260507145527 | 12 | 248 | 1.6 | 4.8 | 0.00 | 0.00 | 0.00 | 59 | 1015.2 |
| 20260507145026 | 14 | 231 | 3.2 | 4.8 | 0.00 | 0.00 | 0.00 | 51 | 1015.3 |
| 20260507144522 | 13 | 57 | 1.6 | 3.2 | 0.00 | 0.00 | 0.00 | 52 | 1015.4 |
| 20260507144020 | 12 | 272 | 6.4 | 6.4 | 0.00 | 0.00 | 0.00 | 54 | 1015.5 |
| 20260507143517 | 13 | 329 | 8.0 | 14.5 | 0.00 | 0.00 | 0.00 | 58 | 1015.5 |
| 20260507143014 | 13 | 139 | 8.0 | 12.9 | 0.00 | 0.00 | 0.00 | 55 | 1015.4 |
| 20260507142509 | 13 | 40 | 6.4 | 6.4 | 0.00 | 0.00 | 0.00 | 55 | 1015.6 |
| 20260507142007 | 13 | 284 | 6.4 | 9.7 | 0.00 | 0.00 | 0.00 | 56 | 1015.8 |
| 20260507141502 | 12 | 146 | 0.0 | 4.8 | 0.00 | 0.00 | 0.00 | 57 | 1015.9 |
| 20260507140959 | 12 | 266 | 3.2 | 4.8 | 0.00 | 0.00 | 0.00 | 60 | 1015.8 |
| 20260507140456 | 13 | 213 | 1.6 | 4.8 | 0.00 | 0.00 | 0.00 | 65 | 1016.0 |
| 20260507135953 | 12 | 238 | 4.8 | 9.7 | 0.00 | 0.00 | 0.00 | 62 | 1016.0 |
| 20260507135450 | 13 | 193 | 4.8 | 9.7 | 0.00 | 0.00 | 0.00 | 60 | 1016.0 |
| 20260507134948 | 13 | 128 | 1.6 | 4.8 | 0.00 | 0.00 | 0.00 | 61 | 1016.0 |
| 20260507134444 | 12 | 97 | 0.0 | 3.2 | 0.00 | 0.00 | 0.00 | 59 | 1016.3 |
| 20260507133940 | 12 | 27 | 3.2 | 4.8 | 0.00 | 0.00 | 0.00 | 62 | 1016.4 |
| 20260507133436 | 12 | 176 | 4.8 | 4.8 | 0.00 | 0.00 | 0.00 | 65 | 1016.2 |
| 20260507132935 | 12 | 284 | 0.0 | 3.2 | 0.00 | 0.00 | 0.00 | 63 | 1016.1 |
| 20260507132430 | 12 | 226 | 0.0 | 3.2 | 0.00 | 0.00 | 0.00 | 63 | 1016.5 |
| 20260507131927 | 11 | 224 | 3.2 | 3.2 | 0.00 | 0.00 | 0.00 | 63 | 1016.2 |
| 20260507131424 | 11 | 137 | 3.2 | 6.4 | 0.00 | 0.00 | 0.00 | 71 | 1016.3 |
| 20260507130921 | 12 | 80 | 1.6 | 3.2 | 0.00 | 0.00 | 0.00 | 65 | 1016.2 |
| 20260507130418 | 11 | 105 | 3.2 | 3.2 | 0.00 | 0.00 | 0.00 | 75 | 1016.3 |
| 20260507125917 | 11 | 85 | 1.6 | 3.2 | 0.00 | 0.00 | 0.00 | 74 | 1016.3 |
| 20260507125415 | 10 | 115 | 4.8 | 6.4 | 0.00 | 0.00 | 0.00 | 76 | 1016.2 |
| 20260507124912 | 10 | 126 | 4.8 | 6.4 | 0.00 | 0.00 | 0.00 | 76 | 1016.2 |
| 20260507124407 | 10 | 112 | 3.2 | 4.8 | 0.00 | 0.00 | 0.00 | 76 | 1016.4 |
| 20260507123906 | 10 | 110 | 4.8 | 6.4 | 0.00 | 0.00 | 0.00 | 75 | 1016.1 |
| 20260507123403 | 10 | 106 | 3.2 | 4.8 | 0.00 | 0.00 | 0.00 | 78 | 1016.3 |
| 20260507122859 | 10 | 131 | 1.6 | 4.8 | 0.00 | 0.00 | 0.00 | 78 | 1016.2 |
| 20260507122355 | 10 | 105 | 4.8 | 4.8 | 0.00 | 0.00 | 0.00 | 76 | 1016.2 |
| 20260507121851 | 11 | 51 | 0.0 | 1.6 | 0.00 | 0.00 | 0.00 | 78 | 1016.3 |
| 20260507121347 | 11 | 318 | 0.0 | 0.0 | 0.00 | 0.00 | 0.00 | 78 | 1016.3 |
| 20260507120844 | 11 | 318 | 0.0 | 0.0 | 0.00 | 0.00 | 0.00 | 80 | 1016.6 |
| 20260507120340 | 11 | 317 | 0.0 | 0.0 | 0.00 | 0.00 | 0.00 | 78 | 1016.4 |
| 20260507115836 | 12 | 315 | 0.0 | 0.0 | 0.00 | 0.00 | 0.00 | 74 | 1016.4 |
| 20260507115332 | 11 | 315 | 0.0 | 0.0 | 0.00 | 0.00 | 0.00 | 79 | 1016.4 |
| 20260507114828 | 9 | 315 | 0.0 | 0.0 | 0.00 | 0.00 | 0.00 | 87 | 1016.5 |
| 20260507114325 | 8 | 315 | 0.0 | 0.0 | 0.00 | 0.00 | 0.00 | 94 | 1016.4 |
| 20260507113823 | 8 | 315 | 0.0 | 0.0 | 0.00 | 0.00 | 0.00 | 93 | 1016.3 |
| 20260507113319 | 7 | 315 | 0.0 | 0.0 | 0.00 | 0.00 | 0.00 | 95 | 1016.2 |
| 20260507112817 | 6 | 315 | 0.0 | 0.0 | 0.00 | 0.00 | 0.00 | 97 | 1016.1 |
| 20260507112314 | 5 | 315 | 0.0 | 0.0 | 0.00 | 0.00 | 0.00 | 97 | 1016.1 |
| 20260507111812 | 5 | 315 | 0.0 | 0.0 | 0.00 | 0.00 | 0.00 | 97 | 1015.9 |
| 20260507111308 | 6 | 315 | 0.0 | 0.0 | 0.00 | 0.00 | 0.00 | 97 | 1015.9 |
| 20260507110804 | 5 | 280 | 0.0 | 0.0 | 0.00 | 0.00 | 0.00 | 98 | 1015.8 |
| 20260507110301 | 4 | 280 | 0.0 | 0.0 | 0.00 | 0.00 | 0.00 | 98 | 1015.8 |
| 20260507105758 | 3 | 280 | 0.0 | 0.0 | 0.00 | 0.00 | 0.00 | 98 | 1015.8 |
| 20260507105254 | 3 | 280 | 0.0 | 0.0 | 0.00 | 0.00 | 0.00 | 98 | 1015.8 |
| 20260507104751 | 3 | 280 | 0.0 | 0.0 | 0.00 | 0.00 | 0.00 | 98 | 1015.6 |
| 20260507104248 | 3 | 280 | 0.0 | 0.0 | 0.00 | 0.00 | 0.00 | 98 | 1015.8 |
| 20260507103743 | 4 | 280 | 0.0 | 0.0 | 0.00 | 0.00 | 0.00 | 98 | 1015.7 |
| 20260507103234 | 4 | 280 | 0.0 | 0.0 | 0.00 | 0.00 | 0.00 | 98 | 1015.7 |
| 20260507102731 | 4 | 280 | 0.0 | 0.0 | 0.00 | 0.00 | 0.00 | 98 | 1015.6 |
| 20260507102228 | 4 | 280 | 0.0 | 0.0 | 0.00 | 0.00 | 0.00 | 98 | 1015.5 |
| 20260507101724 | 4 | 280 | 0.0 | 0.0 | 0.00 | 0.00 | 0.00 | 98 | 1015.6 |
| 20260507101219 | 4 | 280 | 0.0 | 0.0 | 0.00 | 0.00 | 0.00 | 98 | 1015.5 |
| 20260507100716 | 4 | 280 | 0.0 | 0.0 | 0.00 | 0.00 | 0.00 | 98 | 1015.7 |
| 20260507100215 | 4 | 280 | 0.0 | 0.0 | 0.00 | 0.00 | 0.00 | 98 | 1015.6 |
| 20260507095713 | 4 | 280 | 0.0 | 0.0 | 0.00 | 0.00 | 0.00 | 98 | 1015.4 |
| 20260507095209 | 4 | 280 | 0.0 | 0.0 | 0.00 | 0.00 | 0.00 | 97 | 1015.6 |
| 20260507094706 | 5 | 280 | 0.0 | 0.0 | 0.00 | 0.00 | 0.00 | 97 | 1015.5 |
| 20260507094203 | 5 | 280 | 0.0 | 0.0 | 0.00 | 0.00 | 0.00 | 97 | 1015.5 |
| 20260507093659 | 5 | 280 | 0.0 | 0.0 | 0.00 | 0.00 | 0.00 | 97 | 1015.3 |
| 20260507093158 | 5 | 281 | 0.0 | 0.0 | 0.00 | 0.00 | 0.00 | 97 | 1015.3 |
| 20260507092654 | 5 | 280 | 0.0 | 0.0 | 0.00 | 0.00 | 0.00 | 97 | 1015.5 |
| 20260507092151 | 5 | 280 | 0.0 | 0.0 | 0.00 | 0.00 | 0.00 | 96 | 1015.4 |
| 20260507091647 | 5 | 281 | 0.0 | 0.0 | 0.00 | 0.00 | 0.00 | 96 | 1015.3 |
| 20260507091143 | 5 | 270 | 0.0 | 0.0 | 0.00 | 0.00 | 0.00 | 95 | 1015.2 |
| 20260507090639 | 6 | 275 | 0.0 | 0.0 | 0.00 | 0.00 | 0.00 | 95 | 1015.3 |
| 20260507090137 | 6 | 274 | 0.0 | 0.0 | 0.00 | 0.00 | 0.00 | 94 | 1015.4 |
| 20260507085633 | 6 | 274 | 0.0 | 0.0 | 0.00 | 0.00 | 0.00 | 94 | 1015.4 |
| 20260507085130 | 6 | 274 | 0.0 | 0.0 | 0.00 | 0.00 | 0.00 | 94 | 1015.3 |
| 20260507084627 | 6 | 274 | 0.0 | 0.0 | 0.00 | 0.00 | 0.00 | 93 | 1015.3 |
| 20260507084124 | 7 | 274 | 0.0 | 0.0 | 0.00 | 0.00 | 0.00 | 92 | 1015.4 |
| 20260507083620 | 7 | 274 | 0.0 | 0.0 | 0.00 | 0.00 | 0.00 | 92 | 1015.4 |
| 20260507083117 | 7 | 271 | 0.0 | 0.0 | 0.00 | 0.00 | 0.00 | 91 | 1015.6 |
| 20260507082613 | 7 | 267 | 0.0 | 0.0 | 0.00 | 0.00 | 0.00 | 90 | 1015.5 |
| 20260507082110 | 8 | 268 | 0.0 | 1.6 | 0.00 | 0.00 | 0.00 | 91 | 1015.4 |
| 20260507081606 | 8 | 267 | 0.0 | 0.0 | 0.00 | 0.00 | 0.00 | 91 | 1015.4 |
| 20260507081103 | 8 | 269 | 0.0 | 0.0 | 0.00 | 0.00 | 0.00 | 90 | 1015.2 |
| 20260507080559 | 8 | 269 | 0.0 | 0.0 | 0.00 | 0.00 | 0.00 | 90 | 1015.3 |
| 20260507080055 | 8 | 270 | 0.0 | 0.0 | 0.00 | 0.00 | 0.00 | 90 | 1015.5 |
| 20260507075550 | 8 | 264 | 0.0 | 0.0 | 0.00 | 0.00 | 0.00 | 89 | 1015.3 |
| 20260507075047 | 8 | 264 | 0.0 | 0.0 | 0.00 | 0.00 | 0.00 | 90 | 1015.2 |
| 20260507074544 | 8 | 264 | 0.0 | 0.0 | 0.00 | 0.00 | 0.00 | 91 | 1015.3 |
| 20260507074043 | 8 | 264 | 0.0 | 0.0 | 0.00 | 0.00 | 0.00 | 91 | 1015.2 |
| 20260507073538 | 8 | 264 | 0.0 | 0.0 | 0.00 | 0.00 | 0.00 | 90 | 1015.1 |
| 20260507073035 | 8 | 264 | 0.0 | 1.6 | 0.00 | 0.00 | 0.00 | 89 | 1015.1 |
| 20260507072533 | 8 | 265 | 1.6 | 1.6 | 0.00 | 0.00 | 0.00 | 88 | 1015.2 |
| 20260507072030 | 8 | 266 | 0.0 | 1.6 | 0.00 | 0.00 | 0.00 | 88 | 1015.2 |
| 20260507071527 | 8 | 292 | 0.0 | 0.0 | 0.00 | 0.00 | 0.00 | 90 | 1015.0 |
| 20260507071024 | 8 | 292 | 0.0 | 1.6 | 0.00 | 0.00 | 0.00 | 89 | 1015.2 |
| 20260507070521 | 8 | 277 | 0.0 | 0.0 | 0.00 | 0.00 | 0.00 | 90 | 1015.1 |
| 20260507070018 | 8 | 277 | 0.0 | 1.6 | 0.00 | 0.00 | 0.00 | 90 | 1015.1 |
| 20260507065514 | 8 | 280 | 0.0 | 1.6 | 0.00 | 0.00 | 0.00 | 90 | 1015.1 |
| 20260507065011 | 8 | 278 | 0.0 | 0.0 | 0.00 | 0.00 | 0.00 | 91 | 1015.1 |
| 20260507064509 | 8 | 278 | 1.6 | 3.2 | 0.00 | 0.00 | 0.00 | 91 | 1015.1 |
| 20260507064007 | 8 | 291 | 1.6 | 3.2 | 0.00 | 0.00 | 0.00 | 91 | 1015.2 |
| 20260507063504 | 8 | 272 | 0.0 | 0.0 | 0.00 | 0.00 | 0.00 | 91 | 1015.2 |
| 20260507063001 | 8 | 272 | 0.0 | 0.0 | 0.00 | 0.00 | 0.00 | 91 | 1015.2 |
| 20260507062458 | 8 | 272 | 0.0 | 0.0 | 0.00 | 0.00 | 0.00 | 90 | 1015.1 |
| 20260507061955 | 8 | 272 | 0.0 | 0.0 | 0.00 | 0.00 | 0.00 | 88 | 1015.1 |
| 20260507061453 | 8 | 272 | 0.0 | 0.0 | 0.00 | 0.00 | 0.00 | 89 | 1015.3 |
| 20260507060951 | 8 | 273 | 0.0 | 0.0 | 0.00 | 0.00 | 0.00 | 91 | 1015.2 |
| 20260507060448 | 8 | 274 | 0.0 | 0.0 | 0.00 | 0.00 | 0.00 | 91 | 1015.1 |
| 20260507055944 | 9 | 274 | 0.0 | 0.0 | 0.00 | 0.00 | 0.00 | 90 | 1015.1 |
| 20260507055440 | 9 | 273 | 0.0 | 0.0 | 0.00 | 0.00 | 0.00 | 90 | 1015.3 |
| 20260507054937 | 9 | 273 | 0.0 | 0.0 | 0.00 | 0.00 | 0.00 | 89 | 1015.4 |
| 20260507054433 | 9 | 274 | 0.0 | 0.0 | 0.00 | 0.00 | 0.00 | 88 | 1015.5 |
| 20260507053930 | 9 | 273 | 0.0 | 0.0 | 0.00 | 0.00 | 0.00 | 87 | 1015.5 |
| 20260507053428 | 9 | 273 | 0.0 | 0.0 | 0.00 | 0.00 | 0.00 | 86 | 1015.4 |
| 20260507052926 | 9 | 274 | 0.0 | 0.0 | 0.00 | 0.00 | 0.00 | 86 | 1015.5 |
| 20260507052423 | 9 | 280 | 0.0 | 1.6 | 0.00 | 0.00 | 0.00 | 86 | 1015.6 |
| 20260507051920 | 9 | 300 | 0.0 | 0.0 | 0.00 | 0.00 | 0.00 | 85 | 1015.6 |
| 20260507051418 | 9 | 300 | 0.0 | 1.6 | 0.00 | 0.00 | 0.00 | 85 | 1015.7 |
| 20260507050915 | 9 | 290 | 1.6 | 3.2 | 0.00 | 0.00 | 0.00 | 88 | 1015.7 |
| 20260507050411 | 9 | 349 | 0.0 | 3.2 | 0.00 | 0.00 | 0.00 | 90 | 1015.6 |
| 20260507045908 | 9 | 320 | 4.8 | 6.4 | 0.00 | 0.00 | 0.00 | 94 | 1015.7 |
| 20260507045405 | 10 | 319 | 0.0 | 4.8 | 0.00 | 0.00 | 0.00 | 96 | 1015.6 |
| 20260507044902 | 10 | 358 | 6.4 | 11.3 | 0.00 | 0.00 | 0.00 | 98 | 1015.7 |
| 20260507044358 | 10 | 285 | 3.2 | 3.2 | 0.00 | 0.00 | 0.00 | 98 | 1015.9 |
| 20260507043854 | 10 | 315 | 0.0 | 0.0 | 0.00 | 0.00 | 0.00 | 98 | 1015.6 |
| 20260507043351 | 10 | 315 | 0.0 | 0.0 | 0.00 | 0.00 | 0.00 | 98 | 1015.5 |
| 20260507042847 | 10 | 315 | 0.0 | 0.0 | 0.00 | 0.00 | 0.00 | 98 | 1015.3 |
| 20260507042343 | 10 | 315 | 0.0 | 0.0 | 0.00 | 0.00 | 0.00 | 98 | 1015.5 |
| 20260507041840 | 10 | 315 | 0.0 | 0.0 | 0.00 | 0.00 | 0.00 | 98 | 1015.5 |
| 20260507041337 | 10 | 315 | 0.0 | 0.0 | 0.00 | 0.00 | 0.00 | 98 | 1015.3 |
| 20260507040829 | 10 | 315 | 0.0 | 0.0 | 0.00 | 0.00 | 0.00 | 98 | 1015.5 |
| 20260507040325 | 10 | 315 | 0.0 | 0.0 | 0.00 | 0.00 | 0.00 | 98 | 1015.5 |
| 20260507035821 | 10 | 301 | 1.6 | 3.2 | 0.00 | 0.00 | 0.00 | 98 | 1015.4 |
| 20260507035316 | 10 | 293 | 3.2 | 3.2 | 0.00 | 0.00 | 0.00 | 98 | 1015.4 |
| 20260507034814 | 10 | 274 | 0.0 | 0.0 | 0.00 | 0.00 | 0.00 | 98 | 1015.1 |
| 20260507034311 | 10 | 274 | 0.0 | 0.0 | 0.00 | 0.00 | 0.00 | 98 | 1015.1 |
| 20260507033809 | 10 | 273 | 0.0 | 0.0 | 0.00 | 0.00 | 0.00 | 98 | 1015.6 |
| 20260507033307 | 10 | 213 | 0.0 | 0.0 | 0.00 | 0.00 | 0.00 | 98 | 1015.6 |
| 20260507032803 | 10 | 207 | 0.0 | 0.0 | 0.00 | 0.00 | 0.00 | 98 | 1015.4 |
| 20260507032259 | 10 | 198 | 0.0 | 0.0 | 0.00 | 0.00 | 0.00 | 98 | 1015.3 |
| 20260507031756 | 10 | 198 | 0.0 | 0.0 | 0.00 | 0.00 | 0.00 | 98 | 1015.4 |
| 20260507031253 | 10 | 221 | 0.0 | 0.0 | 0.00 | 0.00 | 0.00 | 98 | 1015.9 |
| 20260507030749 | 10 | 224 | 0.0 | 0.0 | 0.00 | 0.00 | 0.00 | 97 | 1015.8 |
| 20260507030247 | 10 | 224 | 0.0 | 0.0 | 0.00 | 0.00 | 0.00 | 98 | 1015.7 |
| 20260507025744 | 10 | 225 | 0.0 | 0.0 | 0.00 | 0.00 | 0.00 | 97 | 1015.7 |
| 20260507025241 | 10 | 225 | 0.0 | 0.0 | 0.00 | 0.00 | 0.00 | 97 | 1015.5 |
| 20260507024739 | 10 | 224 | 0.0 | 0.0 | 0.00 | 0.00 | 0.00 | 97 | 1015.1 |
| 20260507024236 | 10 | 224 | 0.0 | 0.0 | 0.00 | 0.00 | 0.00 | 97 | 1015.2 |